TimePDT,TemperatureF,Dew PointF,Humidity,Sea Level PressureIn,VisibilityMPH,Wind Direction,Wind SpeedMPH,Gust SpeedMPH,PrecipitationIn,Events,Conditions,WindDirDegrees,DateUTC
12:51 AM,77.0,25.0,15,29.72,10.0,WSW,21.9,-,N/A,,Clear,240,2009-05-10 07:51:00
1:51 AM,75.9,28.0,17,29.72,10.0,SW,25.3,31.1,N/A,,Clear,230,2009-05-10 08:51:00
2:51 AM,75.0,30.0,19,29.72,10.0,SW,19.6,-,N/A,,Clear,230,2009-05-10 09:51:00
3:51 AM,73.0,37.0,27,29.74,10.0,West,23.0,27.6,N/A,,Clear,270,2009-05-10 10:51:00
4:51 AM,68.0,39.0,35,29.76,10.0,WNW,15.0,-,N/A,,Clear,300,2009-05-10 11:51:00
5:51 AM,66.9,39.0,36,29.78,10.0,WNW,15.0,-,N/A,,Clear,290,2009-05-10 12:51:00
6:51 AM,68.0,39.0,35,29.81,10.0,WNW,12.7,-,N/A,,Clear,290,2009-05-10 13:51:00
7:51 AM,72.0,37.0,28,29.83,10.0,WNW,12.7,-,N/A,,Clear,290,2009-05-10 14:51:00
8:51 AM,78.1,35.1,21,29.83,10.0,WNW,12.7,-,N/A,,Clear,290,2009-05-10 15:51:00
9:51 AM,82.0,34.0,18,29.83,10.0,NW,11.5,-,N/A,,Clear,310,2009-05-10 16:51:00
10:51 AM,86.0,30.9,14,29.82,10.0,Variable,6.9,-,N/A,,Clear,0,2009-05-10 17:51:00
11:51 AM,89.1,30.0,12,29.81,10.0,Calm,Calm,-,N/A,,Clear,0,2009-05-10 18:51:00
12:51 PM,91.0,27.0,10,29.78,10.0,East,6.9,-,N/A,,Clear,100,2009-05-10 19:51:00
1:51 PM,93.0,25.0,9,29.76,10.0,Variable,4.6,-,N/A,,Clear,0,2009-05-10 20:51:00
2:51 PM,93.9,23.0,8,29.74,10.0,East,3.5,-,N/A,,Clear,90,2009-05-10 21:51:00
3:51 PM,96.1,23.0,7,29.71,10.0,Variable,4.6,-,N/A,,Clear,0,2009-05-10 22:51:00
4:51 PM,96.1,21.9,7,29.69,10.0,NNW,6.9,-,N/A,,Clear,340,2009-05-10 23:51:00
5:51 PM,96.1,21.9,7,29.68,10.0,Calm,Calm,-,N/A,,Clear,0,2009-05-11 00:51:00
6:51 PM,95.0,24.1,8,29.68,10.0,NW,8.1,-,N/A,,Clear,320,2009-05-11 01:51:00
7:51 PM,90.0,28.9,11,29.70,10.0,West,23.0,-,N/A,,Clear,260,2009-05-11 02:51:00
8:51 PM,84.9,30.9,14,29.74,10.0,WSW,21.9,-,N/A,,Clear,250,2009-05-11 03:51:00
9:51 PM,82.0,28.9,14,29.76,10.0,West,10.4,-,N/A,,Clear,270,2009-05-11 04:51:00
10:51 PM,79.0,28.9,16,29.77,10.0,West,15.0,20.7,N/A,,Clear,260,2009-05-11 05:51:00
11:51 PM,78.1,34.0,20,29.77,10.0,WSW,10.4,-,N/A,,Clear,240,2009-05-11 06:51:00